Location: Bermondsey
(51.5000°N, 0.0667°W)
Time: 11:15:23
(UTC+00:00)

Daily predictions for brighter satellites

Satellite Brightness Start Highest point End
(mag) Time Altitude Azimuth Time Altitude Azimuth Time Altitude Azimuth
Meteor 2-3 Rocket 4.1 16:23:23 10° NNW 16:29:02 75° W 16:34:42 10° S
Cosmos 2084 Rocket 3.4 16:25:20 10° NW 16:29:10 73° SW 16:32:57 10° SE
ISS -3.6 16:26:56 10° W 16:30:18 80° SSW 16:33:40 10° ESE
Cosmos 2279 Rocket 4.2 16:25:47 10° N 16:31:49 48° ENE 16:37:48 10° SE
Aureole 3 Rocket 3.2 16:27:39 10° N 16:32:56 62° ENE 16:36:47 10° SSE
Meteor 1-27 4.3 16:28:49 10° S 16:34:20 59° E 16:39:50 10° NNE
Spot 4 Rocket 4.4 16:30:13 10° S 16:35:20 74° WSW 16:40:30 10° NNW
ATLAS CENTAUR R/B 2.3 16:33:25 10° NW 16:36:47 56° NNE 16:43:06 10° ESE
Cosmos 2237 Rocket 3.7 16:32:22 10° NW 16:37:40 43° WSW 16:42:56 10° S
Cosmos 1606 2.5 16:34:11 10° S 16:37:48 74° E 16:41:28 10° NNE
Cosmos 2058 Rocket 3.9 16:35:50 10° SSE 16:39:45 31° E 16:43:39 10° NNE
Cosmos 405 Rocket 3.2 16:43:03 10° SSE 16:46:35 39° E 16:50:11 10° NNE
Cosmos 1140 Rocket 4.3 16:43:33 10° N 16:48:06 29° NE 16:52:36 10° ESE
Cosmos 2150 Rocket 4.0 16:43:03 10° SSW 16:48:12 87° ESE 16:53:28 10° NNE
USA 306 1.1 16:49:33 10° WNW 16:51:51 80° NNE 16:54:00 10° ESE
Cosmos 1606 Rocket 3.6 16:48:11 10° S 16:52:39 90° W 16:57:07 10° N
SJ-7 4.3 16:49:44 10° SSE 16:53:42 77° ENE 16:57:45 10° NNW
SMAP 3.1 16:49:56 10° SSE 16:54:29 58° ENE 16:59:05 10° N
Cosmos 1726 Rocket 3.5 16:50:22 10° S 16:54:47 74° E 16:59:14 10° NNE
Cosmos 1500 3.3 16:54:30 10° N 16:57:55 44° ENE 17:01:19 10° SSE
Cosmos 1825 Rocket 4.4 16:57:23 10° NNW 17:01:36 52° W 17:05:47 10° S
Cosmos 1437 Rocket 2.5 16:58:27 10° N 17:02:10 79° ENE 17:05:54 10° SSE
Cosmos-2242 4.3 16:59:08 10° SE 17:02:18 20° E 17:05:03 12° NE
CZ-2D R/B 3.4 16:59:03 10° S 17:02:43 72° WSW 17:06:25 10° NNW
SL-8 R/B 4.2 17:02:18 10° W 17:07:00 59° S 17:11:43 10° ESE
Cosmos 2082 Rocket 4.4 17:07:06 10° N 17:07:26 10° N 17:07:46 10° N
Cosmos 2263 Rocket 2.8 17:02:35 10° S 17:07:38 37° ESE 17:12:14 12° NE
RESURS DK-1 4.3 17:06:52 10° N 17:08:44 13° NNE 17:09:17 12° NE
Tsikada Rocket 4.3 17:03:23 10° SSW 17:09:36 70° WNW 17:15:48 10° N
Cosmos 2151 2.9 17:05:31 10° N 17:09:49 84° E 17:14:05 10° S
Cosmos 2227 Rocket 2.3 17:04:26 10° SSW 17:10:06 85° WNW 17:15:49 10° NNE
Cosmos 2298 Rocket 4.5 17:05:42 10° SW 17:10:58 64° WNW 17:16:18 10° NNE
CZ-2C R/B 2.9 17:09:53 10° S 17:13:25 68° WSW 17:17:01 10° NNW
Cosmos 1238 Rocket 3.6 17:11:41 10° SSW 17:15:18 46° WNW 17:18:29 10° N
CORIOLIS 4.1 17:12:30 10° SSE 17:17:51 88° ENE 17:23:16 10° NNW
Helios 1B rocket 3.6 17:14:35 10° S 17:18:21 44° W 17:22:10 10° NNW
Cosmos 1603 4.1 17:13:10 10° NNW 17:18:35 41° NE 17:23:55 10° ESE
YAOGAN 1 3.9 17:19:24 19° ENE 17:19:42 19° ENE 17:22:43 10° NNE
Cosmos 2251 Rocket 4.0 17:15:20 10° NNW 17:20:21 40° NE 17:25:23 10° SE
CZ-4B R/B 3.5 17:17:16 10° SSE 17:20:51 85° ENE 17:24:30 10° NNW
Cosmos 1812 3.7 17:18:31 10° SE 17:21:31 24° E 17:22:20 22° ENE
SL-16 R/B 4.3 17:18:41 10° N 17:23:50 28° NW 17:28:57 10° WSW
CZ-4B R/B 3.5 17:18:57 10° SE 17:23:55 57° ENE 17:28:47 10° N
Cosmos 407 Rocket 3.9 17:20:10 10° NNW 17:25:04 39° NE 17:29:52 10° SE
ATLAS 2AS CENTAUR R/B 3.2 17:19:06 10° NW 17:25:45 40° NNE 17:30:16 18° E
USA 305 2.5 17:22:09 10° WNW 17:25:59 82° NNE 17:28:38 19° ESE
Meteor 1-31 Rocket 2.8 17:26:25 10° S 17:30:06 78° WSW 17:33:51 10° NNW
Lacrosse 4 Rocket 1.6 17:26:20 10° NNW 17:30:37 51° NE 17:34:32 12° SE
Cosmos 724 4.5 17:24:49 10° SSW 17:30:55 63° ESE 17:35:29 18° NE
SL-16 R/B 3.2 17:26:27 10° NW 17:31:55 50° WSW 17:37:20 10° S
Cosmos 1544 4.3 17:33:51 10° NNW 17:36:55 39° W 17:39:58 10° SSW
Cosmos 1076 Rocket 4.4 17:41:29 10° NNW 17:45:44 52° W 17:49:58 10° S
Cosmos 1943 3.1 17:40:25 10° NNW 17:46:05 78° ENE 17:51:44 10° SE
Cosmos 1607 4.0 17:43:21 10° SW 17:49:43 88° NW 17:54:20 21° NE
Cosmos 1812 Rocket 3.8 17:46:28 10° SSE 17:50:35 44° E 17:52:19 29° NE
Radarsat Rocket 3.8 17:48:11 10° SSE 17:53:58 78° ENE 18:00:05 10° NNW
Cosmos 1190 Rocket 4.4 17:48:58 10° NNW 17:54:01 41° NE 17:56:11 28° ESE
SL-08 R/B 3.8 17:54:03 34° E 17:54:28 34° E 17:58:41 10° SSE
Cosmos 1602 4.1 17:53:52 10° NNW 17:57:33 62° W 18:01:14 10° S
ADEOS 3.5 17:53:26 10° SSE 17:58:34 61° ENE 18:03:43 10° N
Cosmos 2297 Rocket 3.7 17:53:55 10° WSW 17:58:52 30° NW 18:03:49 10° NNE
Cosmos 2219 3.6 17:54:56 10° SW 18:00:28 60° NW 18:05:03 16° NNE
USA 307 3.1 17:57:47 10° WNW 18:01:35 57° SSW 18:03:12 30° SE
Cosmos 1666 3.7 17:58:26 10° NNW 18:01:49 43° W 18:05:10 10° SSW
ADEOS Rocket 4.2 18:05:29 20° NNE 18:05:29 20° NNE 18:08:09 10° N
Cosmos 1023 Rocket 4.5 17:58:44 10° NNW 18:03:57 83° WSW 18:09:03 10° SSE
Meteor 1-25 Rocket 4.1 18:00:01 10° NNW 18:05:45 81° ENE 18:11:22 10° SSE
ISS -1.9 18:03:51 10° W 18:06:48 28° SSW 18:08:24 19° SSE
USA 234 3.3 18:03:40 30° ENE 18:07:08 70° SE 18:13:40 10° SW
Cosmos 1553 Rocket 4.4 18:02:11 10° N 18:08:08 39° ENE 18:10:27 29° ESE
BREEZE-M DEB (TANK) 3.0 18:09:49 10° WSW 18:10:54 27° SW 18:10:54 27° SW
Cosmos 2344 3.7 18:06:08 10° SSW 18:13:19 50° ESE 18:16:08 34° ENE
COSMO-SKYMED 1 2.4 18:11:55 40° NNE 18:13:24 69° ESE 18:17:43 10° S
Cosmos 2082 3.9 18:12:08 10° SW 18:17:43 67° WNW 18:21:20 23° NNE
Helios 1A 3.3 18:20:32 23° N 18:23:02 64° WNW 18:27:08 10° SSW
Cosmos 2026 Rocket 3.9 18:16:59 10° S 18:23:07 63° E 18:29:24 10° NNE
Cosmos 1833 Rocket 4.1 18:19:09 10° NNW 18:22:32 22° NNE 18:22:32 22° NNE
Lacrosse 5 3.5 18:22:40 10° S 18:24:55 19° SSE 18:24:55 19° SSE
Cosmos 2195 Rocket 4.4 18:22:59 10° S 18:29:18 80° E 18:35:36 10° NNE
Cosmos 1140 Rocket 4.1 18:25:06 10° NNW 18:30:11 55° WSW 18:35:11 10° S
SME Rocket 4.2 18:27:12 10° SSE 18:32:45 79° ENE 18:41:28 10° NNW
CZ-4B R/B 3.0 18:34:38 75° N 18:34:38 75° N 18:38:33 10° NNW
Cosmos 1092 Rocket 3.8 18:30:18 10° S 18:36:25 79° E 18:42:35 10° NNE
Cosmos-2242 3.8 18:35:07 10° SSW 18:39:20 50° WNW 18:41:45 24° N
Nadezhda 4 Rocket 4.5 18:33:56 10° SSW 18:39:59 59° WNW 18:46:03 10° N
CZ-4B R/B 4.0 18:42:41 37° NNE 18:42:41 37° NNE 18:46:24 10° N
ATLAS CENTAUR R/B 3.8 18:37:16 10° WNW 18:41:43 46° SW 18:50:01 10° SSE
Meteor 1-5 Rocket 4.1 18:41:37 10° NNW 18:47:16 87° ENE 18:53:05 10° SSE
Cosmos 676 Rocket 4.3 18:42:01 10° NNW 18:46:18 52° NNE 18:46:18 52° NNE
RESURS DK-1 4.3 18:43:28 10° NNW 18:44:58 21° NNW 18:44:58 21° NNW
Cosmos 2227 4.1 18:43:27 10° SSW 18:49:14 88° ESE 18:50:09 65° NNE
Cosmos 2263 Rocket 3.0 18:46:08 10° SW 18:51:29 46° NW 18:53:56 29° N
Cosmos 1844 Rocket 3.6 18:47:17 10° S 18:50:37 35° SSE 18:50:37 35° SSE
Cosmos 2082 Rocket 4.2 18:50:28 10° NNW 18:52:13 15° N 18:52:13 15° N
Cosmos 2227 Rocket 4.1 18:50:32 10° W 18:55:00 23° NW 18:58:05 15° N
YAOGAN 1 3.4 18:56:27 45° NW 18:56:27 45° NW 18:59:36 10° NNW
Cosmos 1812 4.3 18:53:13 10° SW 18:56:31 31° WNW 18:56:48 30° WNW
USA 305 4.5 18:57:13 10° W 18:59:56 28° WSW 18:59:56 28° WSW
Lacrosse 4 Rocket 3.6 19:05:13 10° WNW 19:08:46 25° WSW 19:10:41 18° SSW
ATLAS 2AS CENTAUR R/B 2.5 19:10:21 10° NW 19:17:20 82° SW 19:17:44 78° S
Cosmos 1818 4.3 19:17:19 10° SW 19:21:04 46° SW 19:21:04 46° SW
USA 234 3.6 19:51:01 59° NW 19:51:01 59° NW 19:56:38 10° W
Cosmos 2344 4.2 20:20:32 10° WSW 20:26:10 46° WNW 20:26:10 46° WNW
